Worland, WY

4:44 PM MST on February 09, 2016 (GMT -0700)
Worland Municipal

Weather History for KWRL - November, 2013

Change the Weather History Date:

Thursday, November 14, 2013

  Actual Average Record
Temperature  
Mean Temperature 37 °F 32 °F  
Max Temperature 48 °F 45 °F 70 °F (1999)
Min Temperature 25 °F 18 °F -19 °F (1978)
Degree Days  
Heating Degree Days 28 33  
Month to date heating degree days 388 415  
Since 1 July heating degree days 1221 1277  
Cooling Degree Days 0 0  
Month to date cooling degree days 0 0  
Year to date cooling degree days 852 535  
Moisture  
Dew Point 28 °F    
Average Humidity 71    
Maximum Humidity 92    
Minimum Humidity 50    
Precipitation  
Precipitation 0.00 in 0.01 in 0.35 in (1991)
Month to date precipitation T 0.18  
Year to date precipitation 7.62 7.17  
Sea Level Pressure  
Sea Level Pressure 29.97 in    
Wind  
Wind Speed 3 mph (South)    
Max Wind Speed 12 mph    
Max Gust Speed 13 mph    
Visibility 10 miles    
Events      
T = Trace of Precipitation, MM = Missing Value Source: NWS Daily Summary

Daily Weather History Graph

Daily Weather History Graph

Search for Another Location

Airport or City:

Trip Planner

Search our weather history database for the weather conditions in past years. The results will help you decide how hot, cold, wet, or windy it might be!

Date:

Astronomy

Nov. 14, 2013 Rise Set
Actual Time 7:05 AM MST 4:46 PM MST
Civil Twilight 6:34 AM MST 5:17 PM MST
Nautical Twilight 5:59 AM MST 5:52 PM MST
Astronomical Twilight 5:25 AM MST 6:26 PM MST
Moon 3:13 PM MST (11/14) 3:58 AM MST (11/14)
Length of Visible Light 10h 42m
Length of Day
9h 40m
Waxing Gibbous, 92% of the Moon is Illuminated
Nov 14
Waxing Gibbous
Nov 17
Full
Nov 25
Last Quarter
Dec 2
New
Dec 9
First Quarter

Hourly Weather History & Observations

Time (MST) Temp. Windchill Dew Point Humidity Pressure Visibility Wind Dir Wind Speed Gust Speed Precip Events Conditions
12:53 AM 32.0 °F 24.8 °F 27.0 °F 82% 30.15 in 10.0 mi South 8.1 mph - N/A   Clear
1:53 AM 32.0 °F 24.2 °F 28.0 °F 85% 30.14 in 10.0 mi SW 9.2 mph - N/A   Clear
2:53 AM 30.9 °F 22.8 °F 28.0 °F 89% 30.14 in 10.0 mi South 9.2 mph - N/A   Clear
3:53 AM 28.9 °F 21.1 °F 26.1 °F 89% 30.14 in 10.0 mi SSW 8.1 mph - N/A   Clear
4:53 AM 25.0 °F 19.3 °F 23.0 °F 92% 30.13 in 10.0 mi ESE 4.6 mph - N/A   Clear
5:53 AM 30.0 °F - 26.1 °F 85% 30.09 in 10.0 mi Calm Calm - N/A   Clear
6:53 AM 27.0 °F 18.0 °F 24.1 °F 89% 30.11 in 10.0 mi SE 9.2 mph - N/A   Clear
7:53 AM 30.0 °F - 26.1 °F 85% 30.10 in 10.0 mi Calm Calm - N/A   Clear
8:53 AM 32.0 °F - 28.9 °F 88% 30.07 in 10.0 mi Calm Calm - N/A   Clear
9:53 AM 35.1 °F - 30.9 °F 85% 30.06 in 10.0 mi Calm Calm - N/A   Clear
10:53 AM 39.0 °F - 32.0 °F 76% 30.00 in 10.0 mi Calm Calm - N/A   Clear
11:53 AM 44.1 °F - 32.0 °F 63% 29.96 in 10.0 mi Calm Calm - N/A   Clear
12:53 PM 46.0 °F - 30.9 °F 56% 29.93 in 10.0 mi Calm Calm - N/A   Clear
1:53 PM 48.0 °F - 30.9 °F 52% 29.90 in 10.0 mi NE 3.5 mph - N/A   Clear
2:53 PM 48.0 °F - 32.0 °F 54% 29.86 in 10.0 mi Calm Calm - N/A   Clear
3:53 PM 46.9 °F - 30.9 °F 54% 29.85 in 10.0 mi Calm Calm - N/A   Clear
4:53 PM 41.0 °F - 30.9 °F 67% 29.88 in 10.0 mi Calm Calm - N/A   Clear
5:53 PM 30.0 °F - 26.1 °F 85% 29.88 in 10.0 mi Calm Calm - N/A   Clear
6:53 PM 33.1 °F 27.7 °F 28.9 °F 85% 29.86 in 10.0 mi SSW 5.8 mph - N/A   Clear
7:53 PM 34.0 °F 27.2 °F 30.0 °F 85% 29.83 in 10.0 mi South 8.1 mph - N/A   Clear
8:53 PM 30.9 °F 25.2 °F 28.9 °F 92% 29.82 in 10.0 mi NW 5.8 mph - N/A   Clear
9:53 PM 28.9 °F - 27.0 °F 92% 29.79 in 10.0 mi Calm Calm - N/A   Clear
10:53 PM 28.9 °F - 26.1 °F 89% 29.78 in 10.0 mi Calm Calm - N/A   Clear
11:53 PM 30.0 °F 25.2 °F 28.0 °F 92% 29.75 in 10.0 mi SSW 4.6 mph - N/A   Clear